Location: Unspecified
(47.5487°N, 19.0270°E)
Time: 09:12:34
(UTC+01:00)

ISS - Visible Passes

Search period start: 24 February 2018 00:00
Search period end: 06 March 2018 00:00
Orbit: 402 x 407 km, 51.6° (Epoch: 24 February)

Date Brightness Start Highest point End Pass type
(mag) Time Alt. Az. Time Alt. Az. Time Alt. Az.
25 Feb -0.4 05:43:31 10° SE 05:44:14 11° SE 05:44:56 10° ESE visible
27 Feb -1.4 05:33:20 10° SSW 05:35:55 22° SE 05:38:30 10° E visible
28 Feb -0.9 04:42:19 10° SSE 04:43:53 13° SE 04:45:29 10° ESE visible
01 Mar -2.8 05:24:34 10° SW 05:27:41 42° SSE 05:30:49 10° ENE visible
02 Mar -2.0 04:34:22 21° S 04:35:32 26° SE 04:38:20 10° E visible
03 Mar -0.9 03:44:24 14° ESE 03:44:24 14° ESE 03:45:31 10° E visible
03 Mar -3.8 05:17:04 17° WSW 05:19:31 82° SSE 05:22:48 10° ENE visible
04 Mar -3.3 04:26:59 49° S 04:27:16 51° SSE 04:30:28 10° ENE visible
05 Mar -1.1 03:36:49 18° E 03:36:49 18° E 03:38:00 10° E visible
05 Mar -3.6 05:09:28 22° W 05:11:24 61° NNW 05:14:40 10° ENE visible
